Charlevoix, MI

4:29 PM EST on January 22, 2018 (GMT -0500)
Charlevoix Municipal

Weather History for KCVX - November, 2011

Change the Weather History Date:

Monday, November 7, 2011

  Actual Average Record
Temperature  
Mean Temperature 50 °F -  
Max Temperature 55 °F 49 °F 66 °F (2016)
Min Temperature 44 °F 38 °F 21 °F (2002)
Degree Days  
Heating Degree Days 16    
Moisture  
Dew Point 33 °F    
Average Humidity 53    
Maximum Humidity 77    
Minimum Humidity 29    
Precipitation  
Precipitation 0.00 in - - ()
Sea Level Pressure  
Sea Level Pressure 30.11 in    
Wind  
Wind Speed 13 mph (SW)    
Max Wind Speed 24 mph    
Max Gust Speed 33 mph    
Visibility 10 miles    
Events      
Averages and records for this station are not official NWS values.
T = Trace of Precipitation, MM = Missing Value Source: NWS Daily Summary

Daily Weather History Graph

Daily Weather History Graph

Search for Another Location

Airport or City:

Trip Planner

Search our weather history database for the weather conditions in past years. The results will help you decide how hot, cold, wet, or windy it might be!

Date:

Astronomy

Nov. 07, 2011 Rise Set
Actual Time 7:28 AM EST 5:20 PM EST
Civil Twilight 6:56 AM EST 5:52 PM EST
Nautical Twilight 6:21 AM EST 6:27 PM EST
Astronomical Twilight 5:47 AM EST 7:01 PM EST
Moon 3:36 PM EST (11/7) 4:23 AM EST (11/7)
Length of Visible Light 10h 55m
Length of Day
9h 52m
Waxing Gibbous, 91% of the Moon is Illuminated
Nov 7
Waxing Gibbous
Nov 10
Full
Nov 18
Last Quarter
Nov 25
New
Dec 2
First Quarter

Hourly Weather History & Observations

Time (EST) Temp. Windchill Dew Point Humidity Pressure Visibility Wind Dir Wind Speed Gust Speed Precip Events Conditions
12:15 AM 55.4 °F - 46.4 °F 72% 29.97 in 10.0 mi SW 11.5 mph 24.2 mph N/A   Overcast
12:35 AM 55.4 °F - 46.4 °F 72% 29.97 in 10.0 mi SW 15.0 mph 20.7 mph N/A   Mostly Cloudy
12:54 AM 55.4 °F - 46.4 °F 72% 29.98 in 10.0 mi SW 12.7 mph 21.9 mph N/A   Mostly Cloudy
1:15 AM 53.6 °F - 46.4 °F 77% 30.00 in 10.0 mi WSW 23.0 mph 31.1 mph N/A   Scattered Clouds
1:34 AM 51.8 °F - 44.6 °F 76% 30.00 in 10.0 mi WSW 19.6 mph 27.6 mph N/A   Scattered Clouds
1:54 AM 50.0 °F - 42.8 °F 76% 30.01 in 10.0 mi SW 15.0 mph 21.9 mph N/A   Clear
2:34 AM 50.0 °F - 41.0 °F 71% 30.03 in 10.0 mi SW 13.8 mph 23.0 mph N/A   Clear
2:54 AM 50.0 °F - 39.2 °F 66% 30.04 in 10.0 mi SW 10.4 mph 17.3 mph N/A   Clear
3:15 AM 48.2 °F - 37.4 °F 66% 30.05 in 10.0 mi SW 12.7 mph 19.6 mph N/A   Clear
3:35 AM 48.2 °F - 35.6 °F 62% 30.05 in 10.0 mi WSW 15.0 mph 19.6 mph N/A   Clear
3:54 AM 48.2 °F - 35.6 °F 62% 30.06 in 10.0 mi SW 15.0 mph 18.4 mph N/A   Clear
4:14 AM 48.2 °F - 35.6 °F 62% 30.06 in 10.0 mi SW 12.7 mph 19.6 mph N/A   Clear
4:34 AM 48.2 °F - 35.6 °F 62% 30.07 in 10.0 mi SW 12.7 mph 17.3 mph N/A   Clear
4:54 AM 46.4 °F 41.1 °F 35.6 °F 66% 30.07 in 10.0 mi SW 11.5 mph 18.4 mph N/A   Clear
5:14 AM 46.4 °F 41.9 °F 35.6 °F 66% 30.08 in 10.0 mi SSW 9.2 mph - N/A   Clear
5:34 AM 46.4 °F 41.5 °F 35.6 °F 66% 30.08 in 10.0 mi SW 10.4 mph - N/A   Clear
6:15 AM 44.6 °F 39.7 °F 35.6 °F 71% 30.09 in 10.0 mi SSW 9.2 mph - N/A   Clear
6:34 AM 44.6 °F 40.7 °F 33.8 °F 66% 30.09 in 10.0 mi SSW 6.9 mph - N/A   Clear
6:54 AM 44.6 °F 40.7 °F 33.8 °F 66% 30.09 in 10.0 mi SSW 6.9 mph - N/A   Clear
7:15 AM 44.6 °F 40.2 °F 33.8 °F 66% 30.10 in 10.0 mi SSW 8.1 mph - N/A   Clear
7:34 AM 44.6 °F 40.2 °F 33.8 °F 66% 30.10 in 10.0 mi SSW 8.1 mph - N/A   Clear
7:54 AM 44.6 °F 39.7 °F 33.8 °F 66% 30.12 in 10.0 mi SSW 9.2 mph - N/A   Clear
8:14 AM 44.6 °F 40.2 °F 33.8 °F 66% 30.11 in 10.0 mi SSW 8.1 mph - N/A   Clear
8:34 AM 46.4 °F 41.5 °F 35.6 °F 66% 30.12 in 10.0 mi SSW 10.4 mph - N/A   Clear
8:55 AM 48.2 °F - 33.8 °F 58% 30.12 in 10.0 mi SSW 11.5 mph 17.3 mph N/A   Clear
9:14 AM 48.2 °F - 33.8 °F 58% 30.12 in 10.0 mi SSW 11.5 mph 18.4 mph N/A   Clear
9:34 AM 48.2 °F - 33.8 °F 58% 30.13 in 10.0 mi SSW 11.5 mph 19.6 mph N/A   Clear
9:55 AM 50.0 °F - 33.8 °F 54% 30.12 in 10.0 mi SSW 13.8 mph 21.9 mph N/A   Clear
10:14 AM 50.0 °F - 33.8 °F 54% 30.12 in 10.0 mi SW 12.7 mph 21.9 mph N/A   Clear
10:35 AM 51.8 °F - 32.0 °F 47% 30.12 in 10.0 mi SSW 16.1 mph 23.0 mph N/A   Clear
10:55 AM 51.8 °F - 32.0 °F 47% 30.13 in 10.0 mi SSW 10.4 mph 19.6 mph N/A   Clear
11:14 AM 53.6 °F - 32.0 °F 44% 30.13 in 10.0 mi SW 13.8 mph 18.4 mph N/A   Clear
11:35 AM 53.6 °F - 33.8 °F 47% 30.13 in 10.0 mi SW 13.8 mph 21.9 mph N/A   Clear
11:55 AM 53.6 °F - 32.0 °F 44% 30.13 in 10.0 mi SW 20.7 mph 25.3 mph N/A   Clear
12:14 PM 55.4 °F - 28.4 °F 36% 30.13 in 10.0 mi WSW 24.2 mph 29.9 mph N/A   Clear
12:35 PM 53.6 °F - 28.4 °F 38% 30.13 in 10.0 mi SW 23.0 mph 32.2 mph N/A   Clear
12:54 PM 55.4 °F - 30.2 °F 38% 30.13 in 10.0 mi SW 20.7 mph 27.6 mph N/A   Clear
1:14 PM 53.6 °F - 30.2 °F 41% 30.13 in 10.0 mi SW 23.0 mph 31.1 mph N/A   Clear
1:35 PM 53.6 °F - 30.2 °F 41% 30.12 in 10.0 mi SW 17.3 mph 33.4 mph N/A   Clear
1:54 PM 55.4 °F - 28.4 °F 36% 30.12 in 10.0 mi SW 19.6 mph 28.8 mph N/A   Clear
2:15 PM 55.4 °F - 28.4 °F 36% 30.12 in 10.0 mi SW 19.6 mph 26.5 mph N/A   Clear
2:34 PM 55.4 °F - 26.6 °F 33% 30.12 in 10.0 mi SW 18.4 mph 27.6 mph N/A   Clear
2:54 PM 55.4 °F - 24.8 °F 31% 30.12 in 10.0 mi SW 17.3 mph 32.2 mph N/A   Clear
3:15 PM 55.4 °F - 23.0 °F 29% 30.12 in 10.0 mi WSW 17.3 mph 28.8 mph N/A   Clear
3:34 PM 55.4 °F - 23.0 °F 29% 30.13 in 10.0 mi WSW 18.4 mph 29.9 mph N/A   Clear
3:54 PM 53.6 °F - 23.0 °F 30% 30.13 in 10.0 mi WSW 18.4 mph 24.2 mph N/A   Clear
4:15 PM 53.6 °F - 23.0 °F 30% 30.14 in 10.0 mi SW 13.8 mph 24.2 mph N/A   Clear
4:34 PM 53.6 °F - 23.0 °F 30% 30.13 in 10.0 mi SW 15.0 mph 26.5 mph N/A   Clear
4:54 PM 51.8 °F - 24.8 °F 35% 30.14 in 10.0 mi SW 16.1 mph 21.9 mph N/A   Clear
5:15 PM 51.8 °F - 24.8 °F 35% 30.14 in 10.0 mi SW 11.5 mph 19.6 mph N/A   Clear
5:34 PM 50.0 °F - 26.6 °F 40% 30.14 in 10.0 mi SW 11.5 mph 18.4 mph N/A   Clear
5:54 PM 50.0 °F - 28.4 °F 43% 30.15 in 10.0 mi SW 10.4 mph 17.3 mph N/A   Clear
6:14 PM 50.0 °F - 28.4 °F 43% 30.16 in 10.0 mi SSW 8.1 mph - N/A   Clear
6:55 PM 48.2 °F - 28.4 °F 46% 30.16 in 10.0 mi SSW 10.4 mph - N/A   Clear
7:15 PM 48.2 °F - 30.2 °F 50% 30.17 in 10.0 mi SSW 6.9 mph - N/A   Clear
7:34 PM 48.2 °F - 30.2 °F 50% 30.17 in 10.0 mi SSW 6.9 mph - N/A   Clear
7:55 PM 48.2 °F - 30.2 °F 50% 30.18 in 10.0 mi SW 8.1 mph - N/A   Clear
8:14 PM 48.2 °F - 30.2 °F 50% 30.18 in 10.0 mi SSW 8.1 mph - N/A   Clear
8:35 PM 46.4 °F 43.5 °F 32.0 °F 57% 30.19 in 10.0 mi SSW 5.8 mph - N/A   Clear
9:14 PM 44.6 °F 39.2 °F 32.0 °F 61% 30.19 in 10.0 mi SSW 10.4 mph - N/A   Clear
9:35 PM 46.4 °F 41.9 °F 32.0 °F 57% 30.19 in 10.0 mi SW 9.2 mph - N/A   Clear
9:55 PM 46.4 °F 42.9 °F 32.0 °F 57% 30.20 in 10.0 mi SW 6.9 mph - N/A   Clear
10:14 PM 46.4 °F 44.3 °F 33.8 °F 62% 30.21 in 10.0 mi SSW 4.6 mph - N/A   Clear
10:35 PM 44.6 °F 40.7 °F 33.8 °F 66% 30.21 in 10.0 mi SW 6.9 mph - N/A   Clear
10:54 PM 44.6 °F 40.2 °F 35.6 °F 71% 30.21 in 10.0 mi WSW 8.1 mph - N/A   Clear
11:14 PM 44.6 °F 40.7 °F 35.6 °F 71% 30.20 in 10.0 mi WSW 6.9 mph - N/A   Clear
11:35 PM 44.6 °F 40.7 °F 35.6 °F 71% 30.20 in 10.0 mi WSW 6.9 mph - N/A   Clear
11:54 PM 44.6 °F 41.4 °F 37.4 °F 76% 30.19 in 10.0 mi WSW 5.8 mph - N/A   Clear